Starlink 32379

operational
NORAD ID: 61851 Int'l Des: 2024-202 Owner: SPXS Country: US Constellation: starlink
LEOCIRCULAR

Starlink 32379について

説明を読み込み中...

リアルタイム位置

3D地球を読み込み中...

次回通過

高度履歴

Altitude vs Time

uPlot chart will show altitude changes over time

軌道要素

1 61851U 24202G 25259.00835235 .00002271 00000-0 91936-4 0 9994
2 61851 43.0010 133.1416 0001449 268.0305 92.0380 15.27606798 48748
Epoch: Sep 16, 2025 • Age: 11 hours

現在のステータス

高度 495.1 km
速度 7.62 km/s
衛星直下点 -42.51°S, 128.44°W
打ち上げ日 Nov 7, 2024
運用期間 0.8 years
タイプ internet

技術仕様

分類 Payload
質量 730.00 kg
乾燥質量 700.00 kg
総質量 730.00 kg
長さ 0.30 m
直径 4.10 m
スパン 29.00 m
形状 Box + pan
製造者 SPXS
バスタイプ Starlink V2M
フェーズステータス In Orbit
所有者/国 SPXS/US

大規模コンステレーション

Loading constellations...